sat.trackr.live / text

‹ back to catalog

STARLINK-3583

NORAD 51876 · 2022-022AA

PAYLOAD ACTIVE UNKNOWN

§ Identity

Operator
Country
US
Launch date
2022-03-03
Launch site
AFETR
Launch vehicle
Mass (kg)
RCS (m²)

Purposes: comms

External: N2YO · Heavens-Above · Gunter

§ Orbital elements

Epoch: 2026-05-25T01:09:15.162624Z

Period
95.44 min
Inclination
53.2138°
Eccentricity
0.0001606
Mean motion
15.08840442 rev/d
Perigee alt
538.6 km
Apogee alt
540.9 km
Semi-major
6,917.9 km
B*
-4.8924e-5
RAAN
26.3306°
Arg perigee
85.1572°
Mean anomaly
274.9603°
Rev number
23,464

§ Raw data

STARLINK-35831 51876U 22022AA  26145.04809216 -.00001067  00000+0 -48924-4 0  99992 51876  53.2138  26.3306 0001606  85.1572 274.9603 15.08840442234648

JSON: /api/v1/satellites/51876 · /tle

For live sub-satellite position, see the globe view (requires WebGL).

§ Visibility from observer

Set your observer location to see the next 7 days of passes ≥ 10°. The values pass through the URL so the page stays shareable.

No JS? Fill the form by hand. The geolocation button needs JavaScript.